Location: Most
(50.5330°N, 13.6500°E)
Time: 14:41:08
(UTC+02:00)

ISS - Visible Passes

Search period start: 29 September 2023 00:00
Search period end: 09 October 2023 00:00
Orbit: 413 x 421 km, 51.6° (Epoch: 29 September)

Date Brightness Start Highest point End Pass type
(mag) Time Alt. Az. Time Alt. Az. Time Alt. Az.
29 Sep -3.7 19:16:33 10° WNW 19:19:55 79° SSW 19:23:14 10° ESE visible
29 Sep -2.0 20:53:38 10° W 20:56:19 23° SW 20:56:37 22° SSW visible
30 Sep -2.4 20:05:06 10° W 20:08:08 32° SSW 20:10:19 16° SSE visible
01 Oct -2.9 19:16:38 10° W 19:19:51 46° SSW 19:23:04 10° SE visible
01 Oct -0.9 20:55:06 10° WSW 20:55:57 11° SW 20:56:49 10° SSW visible
02 Oct -1.2 20:05:35 10° W 20:07:45 16° SW 20:09:56 10° S visible
03 Oct -1.6 19:16:42 10° W 19:19:26 24° SW 19:22:12 10° SSE visible
05 Oct -0.7 19:17:28 10° WSW 19:18:39 11° SW 19:19:50 10° SSW visible
